This demonstration page uses our WeatherBlox Daily Observations layout. Learn more.

Left ArrowRight Arrow

44.8408, -93.29828

Hourly Observations for November 26, 2019

Temp ( °F °C ) Dew Point ( °F °C ) Humidity (%) Winds ( mph kmh ) Pressure ( in mb ) Visibility ( mi km ) Precip ( " mm )
12:53 am 00:53 Cloudy 37 2.8 27 -2.8 67 67 NNW 13 20 29.79 1009 10 16 0.00 0.00
1:53 am 01:53 Cloudy 37 2.8 26 -3.3 65 65 NW 9 15 29.83 1010 10 16 0.00 0.00
2:53 am 02:53 Cloudy 36 2.2 26 -3.3 67 67 NNW 13 20 29.84 1011 10 16 0.00 0.00
3:53 am 03:53 Cloudy 36 2.2 26 -3.3 67 67 NNW 12 19 29.84 1011 10 16 0.00 0.00
4:53 am 04:53 Cloudy 35 1.7 26 -3.3 70 70 N 9 15 29.83 1010 10 16 0.00 0.00
5:53 am 05:53 Cloudy 36 2.2 26 -3.3 67 67 NNW 5 7 29.86 1011 10 16 0.00 0.00
6:53 am 06:53 Cloudy 36 2.2 26 -3.3 67 67 NNE 5 7 29.88 1012 10 16 0.00 0.00
7:53 am 07:53 Cloudy 36 2.2 25 -3.9 64 64 NNE 10 17 29.87 1012 10 16 0.00 0.00
8:53 am 08:53 Cloudy 36 2.2 24 -4.4 62 62 NE 10 17 29.88 1012 10 16 0.00 0.00
9:53 am 09:53 Cloudy 36 2.2 24 -4.4 62 62 ENE 12 19 29.90 1012 10 16 0.00 0.00
10:53 am 10:53 Cloudy 36 2.2 25 -3.9 64 64 ENE 12 19 29.89 1012 10 16 0.00 0.00
11:53 am 11:53 Cloudy 36 2.2 24 -4.4 62 62 NE 15 24 29.86 1011 10 16 0.00 0.00
12:53 pm 12:53 Cloudy 36 2.2 24 -4.4 62 62 NE 9 15 29.87 1012 10 16 0.00 0.00
1:22 pm 13:22 Cloudy 37 2.8 24 -4.4 59 59 ENE 9 15 29.90 1012 10 16 0.00 0.00
1:53 pm 13:53 Cloudy 36 2.2 24 -4.4 62 62 ENE 8 13 29.86 1011 10 16 0.00 0.00
2:15 pm 14:15 Cloudy with Light Snow 36 2.2 25 -3.9 64 64 NNE 12 19 29.86 1011 9 14 0.00 0.00
2:53 pm 14:53 Cloudy 36 2.2 26 -3.3 67 67 NE 13 20 29.81 1010 10 16 0.00 0.00
3:53 pm 15:53 Mostly Cloudy 35 1.7 26 -3.3 70 70 NE 17 28 29.77 1008 10 16 0.00 0.00
4:40 pm 16:40 Mostly Cloudy 35 1.7 26 -3.3 70 70 NE 14 22 29.80 1009 10 16 0.00 0.00
4:53 pm 16:53 Cloudy 35 1.7 25 -3.9 67 67 NE 15 24 29.78 1009 10 16 0.00 0.00
5:53 pm 17:53 Cloudy 35 1.7 25 -3.9 67 67 NE 13 20 29.78 1009 10 16 0.00 0.00
6:53 pm 18:53 Cloudy 34 1.1 25 -3.9 70 70 NE 16 26 29.77 1008 10 16 0.00 0.00
7:27 pm 19:27 Cloudy 34 1.1 25 -3.9 70 70 NNE 15 24 29.76 1008 10 16 0.00 0.00
7:53 pm 19:53 Cloudy 34 1.1 25 -3.9 70 70 NNE 16 26 29.71 1006 10 16 0.00 0.00
8:53 pm 20:53 Cloudy with Light Snow 34 1.1 26 -3.3 73 73 NNE 16 26 29.67 1005 5 8 0.00 0.00
9:00 pm 21:00 Cloudy with Light Snow 34 1.1 26 -3.3 73 73 NNE 17 28 29.69 1005 3 4 0.00 0.00
9:07 pm 21:07 Cloudy with Light Snow 33 0.6 27 -2.8 78 78 NE 14 22 29.68 1005 1 2 0.00 0.00
9:27 pm 21:27 Cloudy with Light Snow 32 0 28 -2.2 85 85 NNE 14 22 29.68 1005 2 2 0.01 0.25
9:30 pm 21:30 Cloudy with Light Snow 32 0 28 -2.2 85 85 NNE 14 22 29.68 1005 1 2 0.01 0.25
9:40 pm 21:40 Mostly Cloudy with Snow 32 0 29 -1.7 88 88 NNE 14 22 29.67 1005 1 1 0.01 0.25
9:49 pm 21:49 Mostly Cloudy with Heavy Snow 30 -1 28 -2 93 93 NNE 15 24 29.68 1005 0 0 0.03 0.76
9:50 pm 21:50 Mostly Cloudy with Heavy Snow 31 -0.6 29 -1.7 92 92 NNE 16 26 29.65 1004 0 0 0.03 0.76
10:00 pm 22:00 Mostly Cloudy with Snow 31 -0.6 29 -1.7 92 92 NNE 14 22 29.68 1005 1 1 0.02 0.51
10:53 pm 22:53 Mostly Cloudy with Light Snow 31 -0.6 29 -1.7 92 92 N 15 24 29.64 1004 1 1 0.10 2.54
11:53 pm 23:53 Mostly Cloudy with Snow 31 -0.6 29 -1.7 92 92 NNE 17 28 29.59 1002 1 1 0.05 1.27

Powered by AerisWeather